| time (UTC) | temp C | wind direction | speed KPH | gust KPH | rain 1hr cm | rain 24hr cm | rain mn cm | humidity % | barometer mb |
| 20260903041524 | 10 | 275 | 0.0 | 3.2 | 0.00 | 0.00 | 0.00 | 92 | 1021.5 |
| 20260903040023 | 10 | 133 | 3.2 | 4.8 | 0.00 | 0.00 | 0.00 | 92 | 1021.4 |
| 20260903034535 | 10 | 288 | 0.0 | 1.6 | 0.00 | 0.00 | 0.00 | 92 | 1021.4 |
| 20260903033021 | 10 | 186 | 0.0 | 0.0 | 0.00 | 0.00 | 0.00 | 92 | 1021.4 |
| 20260903031520 | 10 | 134 | 0.0 | 1.6 | 0.00 | 0.00 | 0.00 | 92 | 1021.6 |
| 20260903030018 | 10 | 171 | 0.0 | 3.2 | 0.00 | 0.00 | 0.00 | 90 | 1021.3 |
| 20260903024523 | 10 | 240 | 0.0 | 3.2 | 0.00 | 0.00 | 0.00 | 91 | 1021.3 |
| 20260903023017 | 10 | 113 | 0.0 | 1.6 | 0.00 | 0.00 | 0.00 | 91 | 1021.6 |
| 20260903021517 | 10 | 113 | 0.0 | 3.2 | 0.00 | 0.00 | 0.00 | 91 | 1021.5 |
| 20260903020015 | 10 | 207 | 0.0 | 6.4 | 0.00 | 0.00 | 0.00 | 91 | 1021.3 |
| 20260903014518 | 10 | 174 | 0.0 | 3.2 | 0.00 | 0.00 | 0.00 | 91 | 1021.4 |
| 20260903013011 | 11 | 169 | 0.0 | 0.0 | 0.00 | 0.00 | 0.00 | 91 | 1021.5 |
| 20260903011515 | 11 | 169 | 0.0 | 1.6 | 0.00 | 0.00 | 0.00 | 90 | 1021.4 |
| 20260903010010 | 11 | 169 | 0.0 | 0.0 | 0.00 | 0.00 | 0.00 | 90 | 1021.4 |
| 20260903004509 | 11 | 169 | 0.0 | 0.0 | 0.00 | 0.00 | 0.00 | 90 | 1021.3 |
| 20260903003009 | 11 | 166 | 0.0 | 8.0 | 0.00 | 0.00 | 0.00 | 90 | 1021.2 |
| 20260903001505 | 11 | 207 | 0.0 | 0.0 | 0.00 | 0.00 | 0.00 | 89 | 1021.2 |
| 20260903000003 | 12 | 178 | 0.0 | 0.0 | 0.00 | 0.00 | 0.00 | 88 | 1021.3 |
| 20260902234502 | 12 | 178 | 0.0 | 3.2 | 0.00 | 0.00 | 0.00 | 87 | 1021.2 |
| 20260902233102 | 12 | 184 | 1.6 | 4.8 | 0.00 | 0.00 | 0.00 | 86 | 1021.2 |
| 20260902231601 | 13 | 215 | 1.6 | 4.8 | 0.00 | 0.00 | 0.00 | 86 | 1021.2 |
| 20260902230104 | 13 | 250 | 0.0 | 4.8 | 0.00 | 0.00 | 0.00 | 85 | 1021.3 |
| 20260902224609 | 13 | 72 | 0.0 | 0.0 | 0.00 | 0.00 | 0.00 | 85 | 1021.4 |
| 20260902223053 | 13 | 264 | 0.0 | 0.0 | 0.00 | 0.00 | 0.00 | 85 | 1021.4 |
| 20260902221552 | 13 | 264 | 0.0 | 0.0 | 0.00 | 0.00 | 0.00 | 85 | 1021.3 |
| 20260902220051 | 14 | 128 | 0.0 | 4.8 | 0.00 | 0.00 | 0.00 | 84 | 1021.2 |
| 20260902214549 | 14 | 142 | 0.0 | 3.2 | 0.00 | 0.00 | 0.00 | 83 | 1021.1 |
| 20260902213050 | 14 | 285 | 0.0 | 0.0 | 0.00 | 0.00 | 0.00 | 83 | 1021.1 |
| 20260902211547 | 14 | 171 | 0.0 | 0.0 | 0.00 | 0.00 | 0.00 | 82 | 1021.0 |
| 20260902210048 | 15 | 227 | 0.0 | 3.2 | 0.00 | 0.00 | 0.00 | 81 | 1021.0 |
| 20260902204548 | 15 | 162 | 0.0 | 4.8 | 0.00 | 0.00 | 0.00 | 82 | 1021.0 |
| 20260902203048 | 15 | 250 | 1.6 | 4.8 | 0.00 | 0.00 | 0.00 | 82 | 1021.0 |
| 20260902201601 | 15 | 328 | 0.0 | 0.0 | 0.00 | 0.00 | 0.00 | 81 | 1020.9 |
| 20260902200106 | 15 | 276 | 0.0 | 3.2 | 0.00 | 0.00 | 0.00 | 80 | 1020.7 |
| 20260902194545 | 15 | 227 | 0.0 | 3.2 | 0.00 | 0.00 | 0.00 | 79 | 1020.7 |
| 20260902193045 | 15 | 144 | 1.6 | 4.8 | 0.00 | 0.00 | 0.00 | 78 | 1020.6 |
| 20260902191549 | 16 | 188 | 0.0 | 0.0 | 0.00 | 0.00 | 0.00 | 77 | 1020.6 |
| 20260902190057 | 16 | 223 | 0.0 | 4.8 | 0.00 | 0.00 | 0.00 | 73 | 1020.5 |
| 20260902184534 | 16 | 188 | 1.6 | 6.4 | 0.00 | 0.00 | 0.00 | 73 | 1020.2 |
| 20260902183032 | 17 | 239 | 0.0 | 0.0 | 0.00 | 0.00 | 0.00 | 69 | 1019.9 |
| 20260902181533 | 17 | 307 | 0.0 | 1.6 | 0.00 | 0.00 | 0.00 | 65 | 1019.8 |
| 20260902180137 | 18 | 331 | 0.0 | 4.8 | 0.00 | 0.00 | 0.00 | 61 | 1019.7 |
| 20260902174530 | 19 | 5 | 3.2 | 6.4 | 0.00 | 0.00 | 0.00 | 55 | 1019.2 |
| 20260902173029 | 19 | 51 | 4.8 | 14.5 | 0.00 | 0.00 | 0.00 | 54 | 1019.3 |
| 20260902171529 | 19 | 27 | 6.4 | 9.7 | 0.00 | 0.00 | 0.00 | 53 | 1019.3 |
| 20260902170004 | 20 | 46 | 3.2 | 9.7 | 0.00 | 0.00 | 0.00 | 51 | 1019.3 |
| 20260902164503 | 20 | 65 | 4.8 | 12.9 | 0.00 | 0.00 | 0.00 | 51 | 1019.2 |
| 20260902163010 | 21 | 48 | 6.4 | 17.7 | 0.00 | 0.00 | 0.00 | 49 | 1019.1 |
| 20260902161511 | 21 | 45 | 8.0 | 16.1 | 0.00 | 0.00 | 0.00 | 47 | 1018.8 |
| 20260902160014 | 22 | 355 | 11.3 | 20.9 | 0.00 | 0.00 | 0.00 | 46 | 1018.8 |
| 20260902154508 | 22 | 101 | 11.3 | 19.3 | 0.00 | 0.00 | 0.00 | 57 | 1018.7 |
| 20260902153008 | 22 | 10 | 8.0 | 14.5 | 0.00 | 0.00 | 0.00 | 57 | 1018.6 |
| 20260902151507 | 22 | 40 | 9.7 | 16.1 | 0.00 | 0.00 | 0.00 | 57 | 1018.6 |
| 20260902150007 | 22 | 28 | 4.8 | 19.3 | 0.00 | 0.00 | 0.00 | 56 | 1018.6 |
| 20260902144507 | 23 | 45 | 11.3 | 19.3 | 0.00 | 0.00 | 0.00 | 55 | 1018.6 |
| 20260902143005 | 22 | 40 | 9.7 | 16.1 | 0.00 | 0.00 | 0.00 | 58 | 1018.7 |
| 20260902141505 | 22 | 5 | 9.7 | 19.3 | 0.00 | 0.00 | 0.00 | 58 | 1018.8 |
| 20260902140005 | 23 | 21 | 9.7 | 17.7 | 0.00 | 0.00 | 0.00 | 55 | 1018.6 |
| 20260902134505 | 23 | 26 | 9.7 | 14.5 | 0.00 | 0.00 | 0.00 | 52 | 1018.6 |
| 20260902133001 | 23 | 50 | 8.0 | 19.3 | 0.00 | 0.00 | 0.00 | 52 | 1018.7 |
| 20260902131607 | 23 | 82 | 6.4 | 12.9 | 0.00 | 0.00 | 0.00 | 52 | 1018.9 |
| 20260902130059 | 23 | 25 | 9.7 | 16.1 | 0.00 | 0.00 | 0.00 | 55 | 1019.1 |
| 20260902124601 | 23 | 44 | 9.7 | 19.3 | 0.00 | 0.00 | 0.00 | 56 | 1019.2 |
| 20260902123054 | 22 | 40 | 9.7 | 17.7 | 0.00 | 0.00 | 0.00 | 57 | 1019.4 |
| 20260902121552 | 22 | 34 | 6.4 | 16.1 | 0.00 | 0.00 | 0.00 | 54 | 1019.4 |
| 20260902120052 | 22 | 21 | 8.0 | 14.5 | 0.00 | 0.00 | 0.00 | 55 | 1019.5 |
| 20260902114550 | 21 | 31 | 4.8 | 14.5 | 0.00 | 0.00 | 0.00 | 60 | 1019.6 |
| 20260902113106 | 22 | 78 | 11.3 | 16.1 | 0.00 | 0.00 | 0.00 | 57 | 1019.6 |
| 20260902111552 | 21 | 17 | 9.7 | 17.7 | 0.00 | 0.00 | 0.00 | 60 | 1019.7 |
| 20260902110047 | 21 | 351 | 6.4 | 16.1 | 0.00 | 0.00 | 0.00 | 60 | 1019.7 |
| 20260902104545 | 21 | 46 | 8.0 | 17.7 | 0.00 | 0.00 | 0.00 | 60 | 1019.6 |
| 20260902103042 | 21 | 10 | 11.3 | 16.1 | 0.00 | 0.00 | 0.00 | 61 | 1019.8 |
| 20260902101541 | 20 | 17 | 6.4 | 12.9 | 0.00 | 0.00 | 0.00 | 60 | 1019.8 |
| 20260902100038 | 21 | 13 | 4.8 | 8.0 | 0.00 | 0.00 | 0.00 | 60 | 1019.9 |
| 20260902094545 | 20 | 121 | 0.0 | 6.4 | 0.00 | 0.00 | 0.00 | 61 | 1020.0 |
| 20260902093034 | 21 | 311 | 1.6 | 6.4 | 0.00 | 0.00 | 0.00 | 63 | 1020.2 |
| 20260902091541 | 20 | 114 | 0.0 | 3.2 | 0.00 | 0.00 | 0.00 | 60 | 1020.3 |
| 20260902090027 | 19 | 120 | 3.2 | 6.4 | 0.00 | 0.00 | 0.00 | 69 | 1020.4 |
| 20260902084523 | 18 | 355 | 1.6 | 6.4 | 0.00 | 0.00 | 0.00 | 73 | 1020.5 |
| 20260902083019 | 17 | 41 | 0.0 | 4.8 | 0.00 | 0.00 | 0.00 | 73 | 1020.5 |
| 20260902081518 | 17 | 71 | 0.0 | 4.8 | 0.00 | 0.00 | 0.00 | 76 | 1020.7 |
| 20260902080012 | 16 | 5 | 3.2 | 8.0 | 0.00 | 0.00 | 0.00 | 79 | 1020.6 |
| 20260902074508 | 15 | 55 | 1.6 | 8.0 | 0.00 | 0.00 | 0.00 | 81 | 1020.9 |
| 20260902073004 | 14 | 19 | 3.2 | 4.8 | 0.00 | 0.00 | 0.00 | 82 | 1020.9 |
| 20260902071601 | 13 | 78 | 1.6 | 3.2 | 0.00 | 0.00 | 0.00 | 84 | 1020.9 |
| 20260902070101 | 12 | 96 | 0.0 | 1.6 | 0.00 | 0.00 | 0.00 | 88 | 1021.0 |
| 20260902064603 | 11 | 96 | 0.0 | 3.2 | 0.00 | 0.00 | 0.00 | 89 | 1021.1 |
| 20260902063051 | 10 | 134 | 0.0 | 0.0 | 0.00 | 0.00 | 0.00 | 92 | 1021.2 |
| 20260902061551 | 9 | 134 | 0.0 | 3.2 | 0.00 | 0.00 | 0.00 | 93 | 1021.2 |
| 20260902060045 | 7 | 126 | 0.0 | 0.0 | 0.00 | 0.00 | 0.00 | 94 | 1021.1 |
| 20260902054541 | 7 | 126 | 0.0 | 0.0 | 0.00 | 0.00 | 0.00 | 94 | 1021.2 |
| 20260902053043 | 7 | 126 | 0.0 | 0.0 | 0.00 | 0.00 | 0.00 | 93 | 1021.0 |
| 20260902051539 | 7 | 136 | 0.0 | 0.0 | 0.00 | 0.00 | 0.00 | 94 | 1021.0 |
| 20260902050041 | 7 | 119 | 0.0 | 0.0 | 0.00 | 0.00 | 0.00 | 94 | 1021.0 |
| 20260902044537 | 7 | 99 | 0.0 | 0.0 | 0.00 | 0.00 | 0.00 | 93 | 1020.9 |
| 20260902043035 | 7 | 100 | 0.0 | 0.0 | 0.00 | 0.00 | 0.00 | 93 | 1020.7 |